Location: Chiroubles
(46.1812°N, 4.6660°E)
Time: 03:32:46
(UTC+00:00)

SL-4 R/B - Pass Details

Date: 15 August 2020
Orbit: 428 x 665 km, 51.6° (Epoch: 27 September)

Event Time Altitude Azimuth Distance (km) Brightness Sun altitude
Rises 21:36:08 0° 291° (WNW) 2,634 6.4 -23.4°
Reaches altitude 10° 21:38:30 10° 300° (WNW) 1,704 5.4 -23.6°
Maximum altitude 21:42:07 39° 10° (N) 728 2.9 -24.0°
Enters shadow 21:42:22 38° 21° (NNE) 732 2.9 -24.0°
